Jacksonville Country Day School FL US WEATHERSTEM current weather conditions

sailwx.info

Air temperature 11.4° C
Dewpoint 9.7° C

Last reported at 2020-Jan-25 13:00 UTC.
Time now 2020-Jan-25 13:43 UTC

Location: N 30°13' W 081°33'.
View on Google Maps.

See reports from other nearby stations

  
Tides and Currents Weather Stations Pressure Air Temp Water Temp Dewpoint Dewpoint Depression Visibility Wind Speed Wind Dir Waves Ship Positions
date/time (UTC)wind fromknots sea level pressurealtimeterstation pressurevisibilityair tempwater tempwave heightnotes
2020-Jan-25 13:00 11.4
2020-Jan-25 12:40 302 1 gusting 2 11.6
2020-Jan-25 12:30 11.7
2020-Jan-25 12:20 11.9
2020-Jan-25 12:10 251 0 gusting 2 12.1
2020-Jan-25 12:00 12.2
2020-Jan-25 11:40 290 1 gusting 5 12.4
2020-Jan-25 11:30 12.5
2020-Jan-25 11:20 310 0 gusting 2 12.7
2020-Jan-25 11:10 12.7
2020-Jan-25 11:00 309 0 gusting 3 12.8
2020-Jan-25 10:40 296 2 gusting 4 13.2
2020-Jan-25 10:30 286 3 gusting 6 13.3
2020-Jan-25 10:20 311 1 gusting 5 13.4
2020-Jan-25 10:10 309 2 gusting 5 13.6
2020-Jan-25 10:00 330 4 gusting 6 13.8
2020-Jan-25 09:40 287 6 gusting 6 14.2
2020-Jan-25 09:30 315 2 gusting 9 14.6
2020-Jan-25 09:20 302 4 gusting 6 14.9
2020-Jan-25 09:10 291 2 gusting 6 15.1
2020-Jan-25 09:00 319 4 gusting 6 15.2
2020-Jan-25 08:40 296 1 gusting 5 15.3
2020-Jan-25 08:30 296 1 gusting 4 15.3
2020-Jan-25 08:20 15.3
2020-Jan-25 08:10 269 0 gusting 5 15.4
2020-Jan-25 08:00 269 0 gusting 4 15.5
2020-Jan-25 07:40 254 0 gusting 2 15.8
2020-Jan-25 07:30 265 2 gusting 3 15.9
2020-Jan-25 07:20 209 1 gusting 4 16.1
2020-Jan-25 07:10 293 2 gusting 8 16.3
2020-Jan-25 07:00 16.3
2020-Jan-25 06:40 225 1 gusting 2 16.5
2020-Jan-25 06:30 16.7
2020-Jan-25 06:20 16.8
2020-Jan-25 06:10 207 0 gusting 3 17.1
2020-Jan-25 06:00 207 0 gusting 5 17.1
2020-Jan-25 05:40 206 1 gusting 5 17.2
2020-Jan-25 05:30 229 1 gusting 6 17.3
2020-Jan-25 05:20 207 3 gusting 9 17.4
2020-Jan-25 05:10 195 1 gusting 9 17.4
2020-Jan-25 05:00 211 1 gusting 6 17.4
2020-Jan-25 04:40 223 2 gusting 5 17.6
2020-Jan-25 04:30 259 5 gusting 6 17.7
2020-Jan-25 04:20 192 1 gusting 5 17.8
2020-Jan-25 04:10 184 2 gusting 5 17.9
2020-Jan-25 04:00 207 2 gusting 6 18.1
2020-Jan-25 03:40 209 4 gusting 6 18.3
2020-Jan-25 03:30 193 4 gusting 6 18.3
2020-Jan-25 03:20 213 1 gusting 9 18.4
2020-Jan-25 03:10 184 3 gusting 5 18.4
2020-Jan-25 03:00 221 2 gusting 6 18.4
2020-Jan-25 02:40 209 5 gusting 6 18.7
2020-Jan-25 02:30 187 3 gusting 7 18.7
2020-Jan-25 02:20 210 4 gusting 8 18.8
2020-Jan-25 02:10 182 1 gusting 6 18.8
2020-Jan-25 02:00 173 5 gusting 7 18.9
2020-Jan-25 01:40 228 4 gusting 6 19.1
2020-Jan-25 01:30 191 4 gusting 7 19.1
2020-Jan-25 01:20 196 2 gusting 6 19.1
2020-Jan-25 01:10 191 5 gusting 6 19.1
2020-Jan-25 01:00 198 2 gusting 5 19.0
2020-Jan-25 00:40 146 1 gusting 6 19.1
2020-Jan-25 00:30 157 0 gusting 3 19.1
2020-Jan-25 00:20 19.3
2020-Jan-25 00:10 19.4
2020-Jan-25 00:00 189 0 gusting 3 19.5
2020-Jan-24 23:40 203 0 gusting 3 19.8
2020-Jan-24 23:30 153 0 gusting 2 19.9
2020-Jan-24 23:20 105 1 gusting 2 20.1
2020-Jan-24 23:10 20.4
2020-Jan-24 23:00 197 0 gusting 5 20.6
2020-Jan-24 22:40 220 1 gusting 4 20.8
2020-Jan-24 22:30 242 0 gusting 5 20.8
2020-Jan-24 22:20 219 2 gusting 9 20.9
2020-Jan-24 22:10 198 3 gusting 10 21.1
2020-Jan-24 22:00 169 0 gusting 7 21.2
2020-Jan-24 21:40 207 1 gusting 5 21.1
2020-Jan-24 21:30 177 3 gusting 6 21.1
2020-Jan-24 21:20 186 4 gusting 6 21.0
2020-Jan-24 21:10 190 3 gusting 5 21.1
2020-Jan-24 21:00 217 2 gusting 8 22.1
2020-Jan-24 20:40 181 3 gusting 7 23.6
2020-Jan-24 20:30 214 2 gusting 9 23.8
2020-Jan-24 20:20 142 3 gusting 8 23.8
2020-Jan-24 20:10 172 4 gusting 6 24.1
2020-Jan-24 20:00 203 5 gusting 6 24.3
2020-Jan-24 19:40 168 4 gusting 12 24.3
2020-Jan-24 19:30 176 0 gusting 8 24.5
2020-Jan-24 19:20 154 2 gusting 7 24.9
2020-Jan-24 19:10 201 7 gusting 13 24.8
2020-Jan-24 19:00 157 2 gusting 7 24.6
2020-Jan-24 18:40 189 4 gusting 8 24.3
2020-Jan-24 18:30 114 5 gusting 8 24.2
2020-Jan-24 18:20 107 1 gusting 9 23.9
2020-Jan-24 18:10 202 2 gusting 13 24.0
2020-Jan-24 18:00 194 3 gusting 9 23.7
2020-Jan-24 17:40 186 1 gusting 7 23.8
2020-Jan-24 17:30 198 6 gusting 10 23.5
2020-Jan-24 17:20 209 6 gusting 9 23.4
2020-Jan-24 17:10 205 6 gusting 8 23.4
2020-Jan-24 17:00 155 2 gusting 11 23.7
2020-Jan-24 16:40 198 6 gusting 8 23.2
2020-Jan-24 16:30 211 7 gusting 9 22.8
2020-Jan-24 16:20 168 1 gusting 9 23.6
2020-Jan-24 16:10 177 2 gusting 8 23.1
2020-Jan-24 16:00 200 2 gusting 8 22.9
2020-Jan-24 15:40 138 7 gusting 7 22.1
2020-Jan-24 15:30 158 2 gusting 6 21.6
2020-Jan-24 15:20 255 2 gusting 7 21.1
2020-Jan-24 15:10 126 4 gusting 7 20.6
2020-Jan-24 15:00 171 1 gusting 5 20.6
2020-Jan-24 14:40 208 3 gusting 6 19.6
2020-Jan-24 14:30 171 1 gusting 6 19.2
2020-Jan-24 14:20 232 3 gusting 6 18.7
2020-Jan-24 14:10 184 1 gusting 6 18.0
2020-Jan-24 14:00 17.3
2020-Jan-24 13:40 16.1
2020-Jan-24 13:30 15.4
2020-Jan-24 13:20 15.2
2020-Jan-24 13:10 15.0
2020-Jan-24 13:00 15.0
2020-Jan-24 12:40 15.0
2020-Jan-24 12:30 15.2
2020-Jan-24 12:20 071 0 gusting 1 15.2
2020-Jan-24 12:10 15.3
2020-Jan-24 12:00 071 0 gusting 2 15.4
2020-Jan-24 11:40 239 0 gusting 1 15.3
2020-Jan-24 11:30 15.2
2020-Jan-24 11:20 15.2
2020-Jan-24 11:10 15.3
2020-Jan-24 11:00 15.3
2020-Jan-24 10:50 15.3
2020-Jan-24 10:40 15.2
2020-Jan-24 10:30 15.3
2020-Jan-24 10:20 15.2
2020-Jan-24 10:10 239 0 gusting 0 15.2
2020-Jan-24 10:00 15.2
2020-Jan-24 09:50 239 0 gusting 1 15.1
2020-Jan-24 09:40 143 0 gusting 1 15.0
2020-Jan-24 09:30 15.0
2020-Jan-24 09:20 143 0 gusting 0 15.0
2020-Jan-24 09:10 14.9
2020-Jan-24 09:00 15.0
2020-Jan-24 08:50 14.9
2020-Jan-24 08:40 143 1 gusting 1 14.9
2020-Jan-24 08:30 14.9
2020-Jan-24 08:20 140 0 gusting 0 14.9
2020-Jan-24 08:10 14.9
2020-Jan-24 08:00 140 0 gusting 1 14.9
2020-Jan-24 07:50 14.9
2020-Jan-24 07:40 14.9
2020-Jan-24 07:30 14.9
2020-Jan-24 07:20 14.9
2020-Jan-24 07:10 14.8
2020-Jan-24 07:00 14.8
2020-Jan-24 06:50 14.8
2020-Jan-24 06:40 14.8
2020-Jan-24 06:30 14.9
2020-Jan-24 06:20 14.9
2020-Jan-24 06:10 14.9
2020-Jan-24 06:00 14.9
2020-Jan-24 05:50 069 0 gusting 1 14.9
2020-Jan-24 05:40 14.9
2020-Jan-24 05:30 14.9
2020-Jan-24 05:20 14.8
2020-Jan-24 05:10 14.9
2020-Jan-24 05:00 069 0 gusting 0 14.9
2020-Jan-24 04:50 15.0
2020-Jan-24 04:40 15.1
2020-Jan-24 04:30 15.1
2020-Jan-24 04:20 15.1
2020-Jan-24 04:10 15.1
2020-Jan-24 04:00 069 0 gusting 2 15.1
2020-Jan-24 03:50 15.2
2020-Jan-24 03:40 15.2
2020-Jan-24 03:30 15.2
2020-Jan-24 03:20 355 0 gusting 0 15.2
2020-Jan-24 03:10 15.2
2020-Jan-24 03:00 15.2
2020-Jan-24 02:50 15.2
2020-Jan-24 02:40 15.2
2020-Jan-24 02:30 15.1
2020-Jan-24 02:20 15.0
2020-Jan-24 02:10 355 0 gusting 1 14.9
2020-Jan-24 02:00 14.9
2020-Jan-24 01:50 355 0 gusting 1 14.8
2020-Jan-24 01:30 14.7
2020-Jan-24 01:10 14.5
2020-Jan-24 01:00 14.4
2020-Jan-24 00:50 032 0 gusting 2 14.3
2020-Jan-24 00:40 14.3
2020-Jan-24 00:30 14.3
2020-Jan-24 00:20 14.3
2020-Jan-24 00:10 096 0 gusting 0 14.3
2020-Jan-24 00:00 14.3
2020-Jan-23 23:50 005 0 gusting 2 14.2
2020-Jan-23 23:40 022 0 gusting 2 14.3
2020-Jan-23 23:30 054 0 gusting 1 14.3
2020-Jan-23 23:20 054 0 gusting 4 14.3
2020-Jan-23 23:10 345 0 gusting 1 14.3
2020-Jan-23 23:00 14.3
2020-Jan-23 22:50 303 1 gusting 3 14.3
2020-Jan-23 22:40 14.3
2020-Jan-23 22:30 032 0 gusting 5 14.4
2020-Jan-23 22:20 017 1 gusting 2 14.4
2020-Jan-23 22:10 059 1 gusting 3 14.4
2020-Jan-23 22:00 302 0 gusting 2 14.4
2020-Jan-23 21:50 334 1 gusting 4 14.5
2020-Jan-23 21:40 14.6
2020-Jan-23 21:30 068 1 gusting 5 14.6
2020-Jan-23 21:20 038 0 gusting 2 14.7
2020-Jan-23 21:10 036 0 gusting 3 14.7
2020-Jan-23 21:00 053 1 gusting 3 14.6
2020-Jan-23 20:50 355 1 gusting 3 14.8
2020-Jan-23 20:40 026 0 gusting 4 14.8
2020-Jan-23 20:30 005 0 gusting 2 14.8
2020-Jan-23 20:20 020 1 gusting 3 14.9
2020-Jan-23 20:10 028 1 gusting 2 15.4
2020-Jan-23 20:00 360 1 gusting 3 15.6
2020-Jan-23 19:50 018 0 gusting 2 15.6
2020-Jan-23 19:40 011 0 gusting 2 15.8
2020-Jan-23 19:30 128 1 gusting 3 15.7
2020-Jan-23 19:20 15.6
2020-Jan-23 19:10 019 1 gusting 4 15.8
2020-Jan-23 19:00 025 1 gusting 3 16.3
2020-Jan-23 18:50 017 1 gusting 3 16.5
2020-Jan-23 18:40 028 1 gusting 5 16.4
2020-Jan-23 18:30 026 4 gusting 6 16.4
2020-Jan-23 18:20 030 0 gusting 4 16.8
2020-Jan-23 18:10 005 0 gusting 3 16.9
2020-Jan-23 18:00 039 2 gusting 3 17.0
2020-Jan-23 17:50 027 1 gusting 3 16.8
2020-Jan-23 17:40 040 0 gusting 3 16.7
2020-Jan-23 17:30 015 0 gusting 3 16.9
2020-Jan-23 17:20 290 2 gusting 4 16.8
2020-Jan-23 17:10 309 1 gusting 4 16.5
2020-Jan-23 17:00 355 3 gusting 6 16.2
2020-Jan-23 16:50 036 2 gusting 3 16.3
2020-Jan-23 16:40 005 1 gusting 5 16.3
2020-Jan-23 16:30 024 1 gusting 3 16.5
2020-Jan-23 16:20 036 1 gusting 3 16.6
2020-Jan-23 16:10 026 0 gusting 3 16.6
2020-Jan-23 16:00 16.3
2020-Jan-23 15:40 355 1 gusting 3 16.3
2020-Jan-23 15:30 035 0 gusting 4 15.9
2020-Jan-23 15:20 15.7
2020-Jan-23 15:10 267 2 gusting 2 15.6
2020-Jan-23 15:00 017 1 gusting 4 15.4
2020-Jan-23 14:50 005 0 gusting 5 15.2
2020-Jan-23 14:40 005 1 gusting 2 15.1
2020-Jan-23 14:30 14.9
2020-Jan-23 14:20 344 0 gusting 2 14.7
2020-Jan-23 14:10 360 0 gusting 2 14.6
2020-Jan-23 14:00 342 0 gusting 2 14.5
2020-Jan-23 13:50 045 0 gusting 3 14.4
2020-Jan-23 13:40 14.2
2020-Jan-23 13:30 14.1
2020-Jan-23 13:20 332 0 gusting 2 13.9
2020-Jan-23 13:10 026 0 gusting 2 13.7
2020-Jan-23 13:00 304 0 gusting 5 13.4